Index of /20260503/WXO-DD/model_rdps/10km/18/041
Name Last modified Size Description
Parent Directory -
20260503T18Z_MSC_RDPS_AbsoluteVorticity_IsbL-0250_RLatLon0.09_PT041H.grib2 2026-05-03 20:52 602K
20260503T18Z_MSC_RDPS_AbsoluteVorticity_IsbL-0500_RLatLon0.09_PT041H.grib2 2026-05-03 20:52 563K
20260503T18Z_MSC_RDPS_AbsoluteVorticity_IsbL-0700_RLatLon0.09_PT041H.grib2 2026-05-03 20:52 632K
20260503T18Z_MSC_RDPS_AbsoluteVorticity_IsbL-0850_RLatLon0.09_PT041H.grib2 2026-05-03 20:52 797K
20260503T18Z_MSC_RDPS_AirTemp_AGL-120m_RLatLon0.09_PT041H.grib2 2026-05-03 20:52 380K
20260503T18Z_MSC_RDPS_AirTemp_AGL-2m_RLatLon0.09_PT041H.grib2 2026-05-03 20:52 638K
20260503T18Z_MSC_RDPS_AirTemp_AGL-40m_RLatLon0.09_PT041H.grib2 2026-05-03 20:52 395K
20260503T18Z_MSC_RDPS_AirTemp_AGL-80m_RLatLon0.09_PT041H.grib2 2026-05-03 20:52 386K
20260503T18Z_MSC_RDPS_AirTemp_IsbL-0001_RLatLon0.09_PT041H.grib2 2026-05-03 20:52 306K
20260503T18Z_MSC_RDPS_AirTemp_IsbL-0005_RLatLon0.09_PT041H.grib2 2026-05-03 20:52 293K
20260503T18Z_MSC_RDPS_AirTemp_IsbL-0010_RLatLon0.09_PT041H.grib2 2026-05-03 20:52 394K
20260503T18Z_MSC_RDPS_AirTemp_IsbL-0020_RLatLon0.09_PT041H.grib2 2026-05-03 20:52 320K
20260503T18Z_MSC_RDPS_AirTemp_IsbL-0030_RLatLon0.09_PT041H.grib2 2026-05-03 20:52 340K
20260503T18Z_MSC_RDPS_AirTemp_IsbL-0050_RLatLon0.09_PT041H.grib2 2026-05-03 20:52 320K
20260503T18Z_MSC_RDPS_AirTemp_IsbL-0100_RLatLon0.09_PT041H.grib2 2026-05-03 20:52 431K
20260503T18Z_MSC_RDPS_AirTemp_IsbL-0150_RLatLon0.09_PT041H.grib2 2026-05-03 20:52 416K
20260503T18Z_MSC_RDPS_AirTemp_IsbL-0175_RLatLon0.09_PT041H.grib2 2026-05-03 20:52 408K
20260503T18Z_MSC_RDPS_AirTemp_IsbL-0200_RLatLon0.09_PT041H.grib2 2026-05-03 20:52 412K
20260503T18Z_MSC_RDPS_AirTemp_IsbL-0225_RLatLon0.09_PT041H.grib2 2026-05-03 20:52 411K
20260503T18Z_MSC_RDPS_AirTemp_IsbL-0250_RLatLon0.09_PT041H.grib2 2026-05-03 20:52 416K
20260503T18Z_MSC_RDPS_AirTemp_IsbL-0275_RLatLon0.09_PT041H.grib2 2026-05-03 20:52 400K
20260503T18Z_MSC_RDPS_AirTemp_IsbL-0300_RLatLon0.09_PT041H.grib2 2026-05-03 20:52 409K
20260503T18Z_MSC_RDPS_AirTemp_IsbL-0350_RLatLon0.09_PT041H.grib2 2026-05-03 20:52 425K
20260503T18Z_MSC_RDPS_AirTemp_IsbL-0400_RLatLon0.09_PT041H.grib2 2026-05-03 20:52 429K
20260503T18Z_MSC_RDPS_AirTemp_IsbL-0450_RLatLon0.09_PT041H.grib2 2026-05-03 20:52 403K
20260503T18Z_MSC_RDPS_AirTemp_IsbL-0500_RLatLon0.09_PT041H.grib2 2026-05-03 20:52 447K
20260503T18Z_MSC_RDPS_AirTemp_IsbL-0550_RLatLon0.09_PT041H.grib2 2026-05-03 20:52 464K
20260503T18Z_MSC_RDPS_AirTemp_IsbL-0600_RLatLon0.09_PT041H.grib2 2026-05-03 20:52 443K
20260503T18Z_MSC_RDPS_AirTemp_IsbL-0650_RLatLon0.09_PT041H.grib2 2026-05-03 20:52 460K
20260503T18Z_MSC_RDPS_AirTemp_IsbL-0700_RLatLon0.09_PT041H.grib2 2026-05-03 20:52 486K
20260503T18Z_MSC_RDPS_AirTemp_IsbL-0750_RLatLon0.09_PT041H.grib2 2026-05-03 20:52 527K
20260503T18Z_MSC_RDPS_AirTemp_IsbL-0800_RLatLon0.09_PT041H.grib2 2026-05-03 20:52 586K
20260503T18Z_MSC_RDPS_AirTemp_IsbL-0850_RLatLon0.09_PT041H.grib2 2026-05-03 20:52 650K
20260503T18Z_MSC_RDPS_AirTemp_IsbL-0875_RLatLon0.09_PT041H.grib2 2026-05-03 20:52 671K
20260503T18Z_MSC_RDPS_AirTemp_IsbL-0900_RLatLon0.09_PT041H.grib2 2026-05-03 20:52 543K
20260503T18Z_MSC_RDPS_AirTemp_IsbL-0925_RLatLon0.09_PT041H.grib2 2026-05-03 20:52 668K
20260503T18Z_MSC_RDPS_AirTemp_IsbL-0950_RLatLon0.09_PT041H.grib2 2026-05-03 20:52 662K
20260503T18Z_MSC_RDPS_AirTemp_IsbL-0970_RLatLon0.09_PT041H.grib2 2026-05-03 20:52 653K
20260503T18Z_MSC_RDPS_AirTemp_IsbL-0985_RLatLon0.09_PT041H.grib2 2026-05-03 20:52 636K
20260503T18Z_MSC_RDPS_AirTemp_IsbL-1000_RLatLon0.09_PT041H.grib2 2026-05-03 20:52 495K
20260503T18Z_MSC_RDPS_AirTemp_IsbL-1015_RLatLon0.09_PT041H.grib2 2026-05-03 20:52 502K
20260503T18Z_MSC_RDPS_Albedo_Sfc_RLatLon0.09_PT041H.grib2 2026-05-03 20:52 153K
20260503T18Z_MSC_RDPS_CAPE_Sfc_RLatLon0.09_PT041H.grib2 2026-05-03 20:52 1.7M
20260503T18Z_MSC_RDPS_CIN_Sfc_RLatLon0.09_PT041H.grib2 2026-05-03 20:52 1.1M
20260503T18Z_MSC_RDPS_CloudWater_EAtm_RLatLon0.09_PT041H.grib2 2026-05-03 20:52 222K
20260503T18Z_MSC_RDPS_ConvectivePrecip-Accum_Sfc_RLatLon0.09_PT041H.grib2 2026-05-03 20:52 1.0M
20260503T18Z_MSC_RDPS_DewPointDepression_AGL-2m_RLatLon0.09_PT041H.grib2 2026-05-03 20:52 403K
20260503T18Z_MSC_RDPS_DewPointDepression_IsbL-0001_RLatLon0.09_PT041H.grib2 2026-05-03 20:52 193
20260503T18Z_MSC_RDPS_DewPointDepression_IsbL-0005_RLatLon0.09_PT041H.grib2 2026-05-03 20:52 193
20260503T18Z_MSC_RDPS_DewPointDepression_IsbL-0010_RLatLon0.09_PT041H.grib2 2026-05-03 20:52 193
20260503T18Z_MSC_RDPS_DewPointDepression_IsbL-0020_RLatLon0.09_PT041H.grib2 2026-05-03 20:52 193
20260503T18Z_MSC_RDPS_DewPointDepression_IsbL-0030_RLatLon0.09_PT041H.grib2 2026-05-03 20:52 193
20260503T18Z_MSC_RDPS_DewPointDepression_IsbL-0050_RLatLon0.09_PT041H.grib2 2026-05-03 20:52 106K
20260503T18Z_MSC_RDPS_DewPointDepression_IsbL-0100_RLatLon0.09_PT041H.grib2 2026-05-03 20:52 116K
20260503T18Z_MSC_RDPS_DewPointDepression_IsbL-0150_RLatLon0.09_PT041H.grib2 2026-05-03 20:52 141K
20260503T18Z_MSC_RDPS_DewPointDepression_IsbL-0175_RLatLon0.09_PT041H.grib2 2026-05-03 20:52 174K
20260503T18Z_MSC_RDPS_DewPointDepression_IsbL-0200_RLatLon0.09_PT041H.grib2 2026-05-03 20:52 214K
20260503T18Z_MSC_RDPS_DewPointDepression_IsbL-0225_RLatLon0.09_PT041H.grib2 2026-05-03 20:52 252K
20260503T18Z_MSC_RDPS_DewPointDepression_IsbL-0250_RLatLon0.09_PT041H.grib2 2026-05-03 20:52 290K
20260503T18Z_MSC_RDPS_DewPointDepression_IsbL-0275_RLatLon0.09_PT041H.grib2 2026-05-03 20:52 301K
20260503T18Z_MSC_RDPS_DewPointDepression_IsbL-0300_RLatLon0.09_PT041H.grib2 2026-05-03 20:52 320K
20260503T18Z_MSC_RDPS_DewPointDepression_IsbL-0350_RLatLon0.09_PT041H.grib2 2026-05-03 20:52 329K
20260503T18Z_MSC_RDPS_DewPointDepression_IsbL-0400_RLatLon0.09_PT041H.grib2 2026-05-03 20:52 339K
20260503T18Z_MSC_RDPS_DewPointDepression_IsbL-0450_RLatLon0.09_PT041H.grib2 2026-05-03 20:52 342K
20260503T18Z_MSC_RDPS_DewPointDepression_IsbL-0500_RLatLon0.09_PT041H.grib2 2026-05-03 20:52 347K
20260503T18Z_MSC_RDPS_DewPointDepression_IsbL-0550_RLatLon0.09_PT041H.grib2 2026-05-03 20:52 358K
20260503T18Z_MSC_RDPS_DewPointDepression_IsbL-0600_RLatLon0.09_PT041H.grib2 2026-05-03 20:52 364K
20260503T18Z_MSC_RDPS_DewPointDepression_IsbL-0650_RLatLon0.09_PT041H.grib2 2026-05-03 20:52 371K
20260503T18Z_MSC_RDPS_DewPointDepression_IsbL-0700_RLatLon0.09_PT041H.grib2 2026-05-03 20:52 384K
20260503T18Z_MSC_RDPS_DewPointDepression_IsbL-0750_RLatLon0.09_PT041H.grib2 2026-05-03 20:52 404K
20260503T18Z_MSC_RDPS_DewPointDepression_IsbL-0800_RLatLon0.09_PT041H.grib2 2026-05-03 20:52 440K
20260503T18Z_MSC_RDPS_DewPointDepression_IsbL-0850_RLatLon0.09_PT041H.grib2 2026-05-03 20:52 476K
20260503T18Z_MSC_RDPS_DewPointDepression_IsbL-0875_RLatLon0.09_PT041H.grib2 2026-05-03 20:52 476K
20260503T18Z_MSC_RDPS_DewPointDepression_IsbL-0900_RLatLon0.09_PT041H.grib2 2026-05-03 20:52 463K
20260503T18Z_MSC_RDPS_DewPointDepression_IsbL-0925_RLatLon0.09_PT041H.grib2 2026-05-03 20:52 449K
20260503T18Z_MSC_RDPS_DewPointDepression_IsbL-0950_RLatLon0.09_PT041H.grib2 2026-05-03 20:52 442K
20260503T18Z_MSC_RDPS_DewPointDepression_IsbL-0970_RLatLon0.09_PT041H.grib2 2026-05-03 20:52 438K
20260503T18Z_MSC_RDPS_DewPointDepression_IsbL-0985_RLatLon0.09_PT041H.grib2 2026-05-03 20:52 433K
20260503T18Z_MSC_RDPS_DewPointDepression_IsbL-1000_RLatLon0.09_PT041H.grib2 2026-05-03 20:52 430K
20260503T18Z_MSC_RDPS_DewPointDepression_IsbL-1015_RLatLon0.09_PT041H.grib2 2026-05-03 20:52 422K
20260503T18Z_MSC_RDPS_DewPoint_AGL-2m_RLatLon0.09_PT041H.grib2 2026-05-03 20:52 395K
20260503T18Z_MSC_RDPS_DownwardLongwaveRadiationFlux-Accum_Sfc_RLatLon0.09_PT041H.grib2 2026-05-03 20:52 390K
20260503T18Z_MSC_RDPS_DownwardShortwaveRadiationFlux-Accum_NTAtm_RLatLon0.09_PT041H.grib2 2026-05-03 20:52 125K
20260503T18Z_MSC_RDPS_DownwardShortwaveRadiationFlux-Accum_Sfc_RLatLon0.09_PT041H.grib2 2026-05-03 20:52 579K
20260503T18Z_MSC_RDPS_FreezingRain-Accum1h_Sfc_RLatLon0.09_PT041H.grib2 2026-05-03 20:52 44K
20260503T18Z_MSC_RDPS_FreezingRain-Accum_Sfc_RLatLon0.09_PT041H.grib2 2026-05-03 20:52 143K
20260503T18Z_MSC_RDPS_GeopotentialHeight_IsbL-0001_RLatLon0.09_PT041H.grib2 2026-05-03 20:52 318K
20260503T18Z_MSC_RDPS_GeopotentialHeight_IsbL-0005_RLatLon0.09_PT041H.grib2 2026-05-03 20:52 311K
20260503T18Z_MSC_RDPS_GeopotentialHeight_IsbL-0010_RLatLon0.09_PT041H.grib2 2026-05-03 20:52 312K
20260503T18Z_MSC_RDPS_GeopotentialHeight_IsbL-0020_RLatLon0.09_PT041H.grib2 2026-05-03 20:52 410K
20260503T18Z_MSC_RDPS_GeopotentialHeight_IsbL-0030_RLatLon0.09_PT041H.grib2 2026-05-03 20:52 412K
20260503T18Z_MSC_RDPS_GeopotentialHeight_IsbL-0050_RLatLon0.09_PT041H.grib2 2026-05-03 20:52 316K
20260503T18Z_MSC_RDPS_GeopotentialHeight_IsbL-0100_RLatLon0.09_PT041H.grib2 2026-05-03 20:52 290K
20260503T18Z_MSC_RDPS_GeopotentialHeight_IsbL-0150_RLatLon0.09_PT041H.grib2 2026-05-03 20:52 231K
20260503T18Z_MSC_RDPS_GeopotentialHeight_IsbL-0175_RLatLon0.09_PT041H.grib2 2026-05-03 20:52 233K
20260503T18Z_MSC_RDPS_GeopotentialHeight_IsbL-0200_RLatLon0.09_PT041H.grib2 2026-05-03 20:52 237K
20260503T18Z_MSC_RDPS_GeopotentialHeight_IsbL-0225_RLatLon0.09_PT041H.grib2 2026-05-03 20:52 238K
20260503T18Z_MSC_RDPS_GeopotentialHeight_IsbL-0250_RLatLon0.09_PT041H.grib2 2026-05-03 20:52 239K
20260503T18Z_MSC_RDPS_GeopotentialHeight_IsbL-0275_RLatLon0.09_PT041H.grib2 2026-05-03 20:52 238K
20260503T18Z_MSC_RDPS_GeopotentialHeight_IsbL-0300_RLatLon0.09_PT041H.grib2 2026-05-03 20:52 237K
20260503T18Z_MSC_RDPS_GeopotentialHeight_IsbL-0350_RLatLon0.09_PT041H.grib2 2026-05-03 20:52 233K
20260503T18Z_MSC_RDPS_GeopotentialHeight_IsbL-0400_RLatLon0.09_PT041H.grib2 2026-05-03 20:52 305K
20260503T18Z_MSC_RDPS_GeopotentialHeight_IsbL-0450_RLatLon0.09_PT041H.grib2 2026-05-03 20:52 301K
20260503T18Z_MSC_RDPS_GeopotentialHeight_IsbL-0500_RLatLon0.09_PT041H.grib2 2026-05-03 20:52 297K
20260503T18Z_MSC_RDPS_GeopotentialHeight_IsbL-0550_RLatLon0.09_PT041H.grib2 2026-05-03 20:52 293K
20260503T18Z_MSC_RDPS_GeopotentialHeight_IsbL-0600_RLatLon0.09_PT041H.grib2 2026-05-03 20:52 263K
20260503T18Z_MSC_RDPS_GeopotentialHeight_IsbL-0650_RLatLon0.09_PT041H.grib2 2026-05-03 20:52 259K
20260503T18Z_MSC_RDPS_GeopotentialHeight_IsbL-0700_RLatLon0.09_PT041H.grib2 2026-05-03 20:52 258K
20260503T18Z_MSC_RDPS_GeopotentialHeight_IsbL-0750_RLatLon0.09_PT041H.grib2 2026-05-03 20:52 346K
20260503T18Z_MSC_RDPS_GeopotentialHeight_IsbL-0800_RLatLon0.09_PT041H.grib2 2026-05-03 20:52 355K
20260503T18Z_MSC_RDPS_GeopotentialHeight_IsbL-0850_RLatLon0.09_PT041H.grib2 2026-05-03 20:52 367K
20260503T18Z_MSC_RDPS_GeopotentialHeight_IsbL-0875_RLatLon0.09_PT041H.grib2 2026-05-03 20:52 368K
20260503T18Z_MSC_RDPS_GeopotentialHeight_IsbL-0900_RLatLon0.09_PT041H.grib2 2026-05-03 20:52 282K
20260503T18Z_MSC_RDPS_GeopotentialHeight_IsbL-0925_RLatLon0.09_PT041H.grib2 2026-05-03 20:52 284K
20260503T18Z_MSC_RDPS_GeopotentialHeight_IsbL-0950_RLatLon0.09_PT041H.grib2 2026-05-03 20:52 286K
20260503T18Z_MSC_RDPS_GeopotentialHeight_IsbL-0970_RLatLon0.09_PT041H.grib2 2026-05-03 20:52 290K
20260503T18Z_MSC_RDPS_GeopotentialHeight_IsbL-0985_RLatLon0.09_PT041H.grib2 2026-05-03 20:52 296K
20260503T18Z_MSC_RDPS_GeopotentialHeight_IsbL-1000_RLatLon0.09_PT041H.grib2 2026-05-03 20:52 304K
20260503T18Z_MSC_RDPS_GeopotentialHeight_IsbL-1015_RLatLon0.09_PT041H.grib2 2026-05-03 20:52 317K
20260503T18Z_MSC_RDPS_Humidex_Sfc_RLatLon0.09_PT041H.grib2 2026-05-03 20:52 2.4M
20260503T18Z_MSC_RDPS_IcePellets-Accum1h_Sfc_RLatLon0.09_PT041H.grib2 2026-05-03 20:52 10K
20260503T18Z_MSC_RDPS_IcePellets-Accum_Sfc_RLatLon0.09_PT041H.grib2 2026-05-03 20:52 29K
20260503T18Z_MSC_RDPS_KIndex_Sfc_RLatLon0.09_PT041H.grib2 2026-05-03 20:52 2.5M
20260503T18Z_MSC_RDPS_LatentHeatNetFlux_Sfc_RLatLon0.09_PT041H.grib2 2026-05-03 20:52 335K
20260503T18Z_MSC_RDPS_LiftedIndex-MU-VT_IsbL-0500_RLatLon0.09_PT041H.grib2 2026-05-03 20:52 2.4M
20260503T18Z_MSC_RDPS_NetLongwaveRadiationFlux-Accum_Sfc_RLatLon0.09_PT041H.grib2 2026-05-03 20:52 527K
20260503T18Z_MSC_RDPS_NetShortwaveRadiationFlux-Accum_Sfc_RLatLon0.09_PT041H.grib2 2026-05-03 20:52 575K
20260503T18Z_MSC_RDPS_PlanetaryBoundaryLayerHeight_Sfc_RLatLon0.09_PT041H.grib2 2026-05-03 20:52 1.2M
20260503T18Z_MSC_RDPS_Precip-Accum1h_Sfc_RLatLon0.09_PT041H.grib2 2026-05-03 20:52 1.3M
20260503T18Z_MSC_RDPS_Precip-Accum_Sfc_RLatLon0.09_PT041H.grib2 2026-05-03 20:52 2.0M
20260503T18Z_MSC_RDPS_PrecipRate_Sfc_RLatLon0.09_PT041H.grib2 2026-05-03 20:52 191K
20260503T18Z_MSC_RDPS_PrecipType-Instant_Sfc_RLatLon0.09_PT041H.grib2 2026-05-03 20:52 625K
20260503T18Z_MSC_RDPS_Pressure-Trend3h_Sfc_RLatLon0.09_PT041H.grib2 2026-05-03 20:52 1.2M
20260503T18Z_MSC_RDPS_Pressure_MSL_RLatLon0.09_PT041H.grib2 2026-05-03 20:52 328K
20260503T18Z_MSC_RDPS_Pressure_PVU-1.5_RLatLon0.09_PT041H.grib2 2026-05-03 20:52 2.5M
20260503T18Z_MSC_RDPS_Pressure_PVU-1_RLatLon0.09_PT041H.grib2 2026-05-03 20:52 2.4M
20260503T18Z_MSC_RDPS_Pressure_PVU-2_RLatLon0.09_PT041H.grib2 2026-05-03 20:52 2.4M
20260503T18Z_MSC_RDPS_Pressure_Sfc_RLatLon0.09_PT041H.grib2 2026-05-03 20:52 499K
20260503T18Z_MSC_RDPS_RadiativeTemp_Sfc_RLatLon0.09_PT041H.grib2 2026-05-03 20:52 300K
20260503T18Z_MSC_RDPS_Rain-Accum1h_Sfc_RLatLon0.09_PT041H.grib2 2026-05-03 20:52 669K
20260503T18Z_MSC_RDPS_Rain-Accum_Sfc_RLatLon0.09_PT041H.grib2 2026-05-03 20:52 1.8M
20260503T18Z_MSC_RDPS_RelativeHumidity_AGL-2m_RLatLon0.09_PT041H.grib2 2026-05-03 20:52 1.0M
20260503T18Z_MSC_RDPS_RelativeHumidity_IsbL-0010_RLatLon0.09_PT041H.grib2 2026-05-03 20:52 699K
20260503T18Z_MSC_RDPS_RelativeHumidity_IsbL-0020_RLatLon0.09_PT041H.grib2 2026-05-03 20:52 753K
20260503T18Z_MSC_RDPS_RelativeHumidity_IsbL-0030_RLatLon0.09_PT041H.grib2 2026-05-03 20:52 604K
20260503T18Z_MSC_RDPS_RelativeHumidity_IsbL-0050_RLatLon0.09_PT041H.grib2 2026-05-03 20:52 363K
20260503T18Z_MSC_RDPS_RelativeHumidity_IsbL-0100_RLatLon0.09_PT041H.grib2 2026-05-03 20:52 287K
20260503T18Z_MSC_RDPS_RelativeHumidity_IsbL-0150_RLatLon0.09_PT041H.grib2 2026-05-03 20:52 413K
20260503T18Z_MSC_RDPS_RelativeHumidity_IsbL-0175_RLatLon0.09_PT041H.grib2 2026-05-03 20:52 476K
20260503T18Z_MSC_RDPS_RelativeHumidity_IsbL-0200_RLatLon0.09_PT041H.grib2 2026-05-03 20:52 555K
20260503T18Z_MSC_RDPS_RelativeHumidity_IsbL-0225_RLatLon0.09_PT041H.grib2 2026-05-03 20:52 617K
20260503T18Z_MSC_RDPS_RelativeHumidity_IsbL-0250_RLatLon0.09_PT041H.grib2 2026-05-03 20:52 680K
20260503T18Z_MSC_RDPS_RelativeHumidity_IsbL-0275_RLatLon0.09_PT041H.grib2 2026-05-03 20:52 702K
20260503T18Z_MSC_RDPS_RelativeHumidity_IsbL-0300_RLatLon0.09_PT041H.grib2 2026-05-03 20:52 743K
20260503T18Z_MSC_RDPS_RelativeHumidity_IsbL-0350_RLatLon0.09_PT041H.grib2 2026-05-03 20:52 771K
20260503T18Z_MSC_RDPS_RelativeHumidity_IsbL-0400_RLatLon0.09_PT041H.grib2 2026-05-03 20:52 786K
20260503T18Z_MSC_RDPS_RelativeHumidity_IsbL-0450_RLatLon0.09_PT041H.grib2 2026-05-03 20:52 789K
20260503T18Z_MSC_RDPS_RelativeHumidity_IsbL-0500_RLatLon0.09_PT041H.grib2 2026-05-03 20:52 792K
20260503T18Z_MSC_RDPS_RelativeHumidity_IsbL-0550_RLatLon0.09_PT041H.grib2 2026-05-03 20:52 817K
20260503T18Z_MSC_RDPS_RelativeHumidity_IsbL-0600_RLatLon0.09_PT041H.grib2 2026-05-03 20:52 831K
20260503T18Z_MSC_RDPS_RelativeHumidity_IsbL-0650_RLatLon0.09_PT041H.grib2 2026-05-03 20:52 849K
20260503T18Z_MSC_RDPS_RelativeHumidity_IsbL-0700_RLatLon0.09_PT041H.grib2 2026-05-03 20:52 877K
20260503T18Z_MSC_RDPS_RelativeHumidity_IsbL-0750_RLatLon0.09_PT041H.grib2 2026-05-03 20:52 919K
20260503T18Z_MSC_RDPS_RelativeHumidity_IsbL-0800_RLatLon0.09_PT041H.grib2 2026-05-03 20:52 1.0M
20260503T18Z_MSC_RDPS_RelativeHumidity_IsbL-0850_RLatLon0.09_PT041H.grib2 2026-05-03 20:52 1.0M
20260503T18Z_MSC_RDPS_RelativeHumidity_IsbL-0875_RLatLon0.09_PT041H.grib2 2026-05-03 20:52 1.1M
20260503T18Z_MSC_RDPS_RelativeHumidity_IsbL-0900_RLatLon0.09_PT041H.grib2 2026-05-03 20:52 1.1M
20260503T18Z_MSC_RDPS_RelativeHumidity_IsbL-0925_RLatLon0.09_PT041H.grib2 2026-05-03 20:52 1.1M
20260503T18Z_MSC_RDPS_RelativeHumidity_IsbL-0950_RLatLon0.09_PT041H.grib2 2026-05-03 20:52 1.1M
20260503T18Z_MSC_RDPS_RelativeHumidity_IsbL-0970_RLatLon0.09_PT041H.grib2 2026-05-03 20:52 1.1M
20260503T18Z_MSC_RDPS_RelativeHumidity_IsbL-0985_RLatLon0.09_PT041H.grib2 2026-05-03 20:52 1.0M
20260503T18Z_MSC_RDPS_RelativeHumidity_IsbL-1000_RLatLon0.09_PT041H.grib2 2026-05-03 20:52 1.0M
20260503T18Z_MSC_RDPS_RelativeHumidity_IsbL-1015_RLatLon0.09_PT041H.grib2 2026-05-03 20:52 1.0M
20260503T18Z_MSC_RDPS_Runoff-Accum_Sfc_RLatLon0.09_PT041H.grib2 2026-05-03 20:52 50K
20260503T18Z_MSC_RDPS_SWEATIndex_Sfc_RLatLon0.09_PT041H.grib2 2026-05-03 20:52 2.4M
20260503T18Z_MSC_RDPS_SeeingIndex_EAtm_RLatLon0.09_PT041H.grib2 2026-05-03 20:52 1.0M
20260503T18Z_MSC_RDPS_SensibleHeatNetFlux_Sfc_RLatLon0.09_PT041H.grib2 2026-05-03 20:52 305K
20260503T18Z_MSC_RDPS_ShowalterIndex_IsbL-0500_RLatLon0.09_PT041H.grib2 2026-05-03 20:52 2.6M
20260503T18Z_MSC_RDPS_SkyTransparencyIndex_EAtm_RLatLon0.09_PT041H.grib2 2026-05-03 20:52 709K
20260503T18Z_MSC_RDPS_Snow-Accum1h_Sfc_RLatLon0.09_PT041H.grib2 2026-05-03 20:52 472K
20260503T18Z_MSC_RDPS_Snow-Accum_Sfc_RLatLon0.09_PT041H.grib2 2026-05-03 20:52 705K
20260503T18Z_MSC_RDPS_SnowDensity_Sfc_RLatLon0.09_PT041H.grib2 2026-05-03 20:52 172K
20260503T18Z_MSC_RDPS_SnowDepth_Sfc_RLatLon0.09_PT041H.grib2 2026-05-03 20:52 653K
20260503T18Z_MSC_RDPS_SoilTemp_DBS-0to10cm_RLatLon0.09_PT041H.grib2 2026-05-03 20:52 237K
20260503T18Z_MSC_RDPS_SoilTemp_Sfc_RLatLon0.09_PT041H.grib2 2026-05-03 20:52 278K
20260503T18Z_MSC_RDPS_SoilVolumetricIceContent_Sfc_RLatLon0.09_PT041H.grib2 2026-05-03 20:52 153K
20260503T18Z_MSC_RDPS_SoilVolumetricWaterContent_DBS-0to10cm_RLatLon0.09_PT041H.grib2 2026-05-03 20:52 277K
20260503T18Z_MSC_RDPS_SoilVolumetricWaterContent_DBS-0to1cm_RLatLon0.09_PT041H.grib2 2026-05-03 20:52 340K
20260503T18Z_MSC_RDPS_SpecificHumidity_AGL-120m_RLatLon0.09_PT041H.grib2 2026-05-03 20:52 495K
20260503T18Z_MSC_RDPS_SpecificHumidity_AGL-2m_RLatLon0.09_PT041H.grib2 2026-05-03 20:52 665K
20260503T18Z_MSC_RDPS_SpecificHumidity_AGL-40m_RLatLon0.09_PT041H.grib2 2026-05-03 20:52 502K
20260503T18Z_MSC_RDPS_SpecificHumidity_AGL-80m_RLatLon0.09_PT041H.grib2 2026-05-03 20:52 497K
20260503T18Z_MSC_RDPS_SpecificHumidity_IsbL-0001_RLatLon0.09_PT041H.grib2 2026-05-03 20:52 402K
20260503T18Z_MSC_RDPS_SpecificHumidity_IsbL-0005_RLatLon0.09_PT041H.grib2 2026-05-03 20:52 374K
20260503T18Z_MSC_RDPS_SpecificHumidity_IsbL-0010_RLatLon0.09_PT041H.grib2 2026-05-03 20:52 402K
20260503T18Z_MSC_RDPS_SpecificHumidity_IsbL-0020_RLatLon0.09_PT041H.grib2 2026-05-03 20:52 385K
20260503T18Z_MSC_RDPS_SpecificHumidity_IsbL-0030_RLatLon0.09_PT041H.grib2 2026-05-03 20:52 377K
20260503T18Z_MSC_RDPS_SpecificHumidity_IsbL-0050_RLatLon0.09_PT041H.grib2 2026-05-03 20:52 488K
20260503T18Z_MSC_RDPS_SpecificHumidity_IsbL-0100_RLatLon0.09_PT041H.grib2 2026-05-03 20:52 424K
20260503T18Z_MSC_RDPS_SpecificHumidity_IsbL-0150_RLatLon0.09_PT041H.grib2 2026-05-03 20:52 450K
20260503T18Z_MSC_RDPS_SpecificHumidity_IsbL-0175_RLatLon0.09_PT041H.grib2 2026-05-03 20:52 439K
20260503T18Z_MSC_RDPS_SpecificHumidity_IsbL-0200_RLatLon0.09_PT041H.grib2 2026-05-03 20:52 456K
20260503T18Z_MSC_RDPS_SpecificHumidity_IsbL-0225_RLatLon0.09_PT041H.grib2 2026-05-03 20:52 455K
20260503T18Z_MSC_RDPS_SpecificHumidity_IsbL-0250_RLatLon0.09_PT041H.grib2 2026-05-03 20:52 559K
20260503T18Z_MSC_RDPS_SpecificHumidity_IsbL-0275_RLatLon0.09_PT041H.grib2 2026-05-03 20:52 474K
20260503T18Z_MSC_RDPS_SpecificHumidity_IsbL-0300_RLatLon0.09_PT041H.grib2 2026-05-03 20:52 572K
20260503T18Z_MSC_RDPS_SpecificHumidity_IsbL-0350_RLatLon0.09_PT041H.grib2 2026-05-03 20:52 569K
20260503T18Z_MSC_RDPS_SpecificHumidity_IsbL-0400_RLatLon0.09_PT041H.grib2 2026-05-03 20:52 524K
20260503T18Z_MSC_RDPS_SpecificHumidity_IsbL-0450_RLatLon0.09_PT041H.grib2 2026-05-03 20:52 572K
20260503T18Z_MSC_RDPS_SpecificHumidity_IsbL-0500_RLatLon0.09_PT041H.grib2 2026-05-03 20:52 504K
20260503T18Z_MSC_RDPS_SpecificHumidity_IsbL-0550_RLatLon0.09_PT041H.grib2 2026-05-03 20:52 574K
20260503T18Z_MSC_RDPS_SpecificHumidity_IsbL-0600_RLatLon0.09_PT041H.grib2 2026-05-03 20:52 620K
20260503T18Z_MSC_RDPS_SpecificHumidity_IsbL-0650_RLatLon0.09_PT041H.grib2 2026-05-03 20:52 539K
20260503T18Z_MSC_RDPS_SpecificHumidity_IsbL-0700_RLatLon0.09_PT041H.grib2 2026-05-03 20:52 585K
20260503T18Z_MSC_RDPS_SpecificHumidity_IsbL-0750_RLatLon0.09_PT041H.grib2 2026-05-03 20:52 641K
20260503T18Z_MSC_RDPS_SpecificHumidity_IsbL-0800_RLatLon0.09_PT041H.grib2 2026-05-03 20:52 715K
20260503T18Z_MSC_RDPS_SpecificHumidity_IsbL-0850_RLatLon0.09_PT041H.grib2 2026-05-03 20:52 808K
20260503T18Z_MSC_RDPS_SpecificHumidity_IsbL-0875_RLatLon0.09_PT041H.grib2 2026-05-03 20:52 834K
20260503T18Z_MSC_RDPS_SpecificHumidity_IsbL-0900_RLatLon0.09_PT041H.grib2 2026-05-03 20:52 845K
20260503T18Z_MSC_RDPS_SpecificHumidity_IsbL-0925_RLatLon0.09_PT041H.grib2 2026-05-03 20:52 844K
20260503T18Z_MSC_RDPS_SpecificHumidity_IsbL-0950_RLatLon0.09_PT041H.grib2 2026-05-03 20:52 842K
20260503T18Z_MSC_RDPS_SpecificHumidity_IsbL-0970_RLatLon0.09_PT041H.grib2 2026-05-03 20:52 698K
20260503T18Z_MSC_RDPS_SpecificHumidity_IsbL-0985_RLatLon0.09_PT041H.grib2 2026-05-03 20:52 691K
20260503T18Z_MSC_RDPS_SpecificHumidity_IsbL-1000_RLatLon0.09_PT041H.grib2 2026-05-03 20:52 687K
20260503T18Z_MSC_RDPS_SpecificHumidity_IsbL-1015_RLatLon0.09_PT041H.grib2 2026-05-03 20:52 680K
20260503T18Z_MSC_RDPS_SpecificHumidity_Sfc_RLatLon0.09_PT041H.grib2 2026-05-03 20:52 295K
20260503T18Z_MSC_RDPS_StormRelativeHelicity_EtaL-10000_RLatLon0.09_PT041H.grib2 2026-05-03 20:52 1.1M
20260503T18Z_MSC_RDPS_StormSeverityIndex_EtaL-10000_RLatLon0.09_PT041H.grib2 2026-05-03 20:52 1.1M
20260503T18Z_MSC_RDPS_Thickness_IsbL-0850to0700_RLatLon0.09_PT041H.grib2 2026-05-03 20:52 179K
20260503T18Z_MSC_RDPS_Thickness_IsbL-1000to0500_RLatLon0.09_PT041H.grib2 2026-05-03 20:52 199K
20260503T18Z_MSC_RDPS_Thickness_IsbL-1000to0850_RLatLon0.09_PT041H.grib2 2026-05-03 20:52 263K
20260503T18Z_MSC_RDPS_TotalCloudCover_Sfc_RLatLon0.09_PT041H.grib2 2026-05-03 20:52 677K
20260503T18Z_MSC_RDPS_TotalTotalsIndex_Sfc_RLatLon0.09_PT041H.grib2 2026-05-03 20:52 2.4M
20260503T18Z_MSC_RDPS_UVIndex-ClearSky_Sfc_RLatLon0.09_PT041H.grib2 2026-05-03 20:52 118K
20260503T18Z_MSC_RDPS_UVIndex_Sfc_RLatLon0.09_PT041H.grib2 2026-05-03 20:52 283K
20260503T18Z_MSC_RDPS_UpwardLongwaveRadiationFlux_NTAtm_RLatLon0.09_PT041H.grib2 2026-05-03 20:52 491K
20260503T18Z_MSC_RDPS_UpwardShortwaveRadiationFlux_NTAtm_RLatLon0.09_PT041H.grib2 2026-05-03 20:52 262K
20260503T18Z_MSC_RDPS_VerticalVelocity_IsbL-0250_RLatLon0.09_PT041H.grib2 2026-05-03 20:52 557K
20260503T18Z_MSC_RDPS_VerticalVelocity_IsbL-0500_RLatLon0.09_PT041H.grib2 2026-05-03 20:52 555K
20260503T18Z_MSC_RDPS_VerticalVelocity_IsbL-0700_RLatLon0.09_PT041H.grib2 2026-05-03 20:52 603K
20260503T18Z_MSC_RDPS_VerticalVelocity_IsbL-0850_RLatLon0.09_PT041H.grib2 2026-05-03 20:52 715K
20260503T18Z_MSC_RDPS_VerticalWindShear_EtaL-6500_RLatLon0.09_PT041H.grib2 2026-05-03 20:52 1.2M
20260503T18Z_MSC_RDPS_WindChill_Sfc_RLatLon0.09_PT041H.grib2 2026-05-03 20:52 1.2M
20260503T18Z_MSC_RDPS_WindDir_AGL-10m_RLatLon0.09_PT041H.grib2 2026-05-03 20:52 1.0M
20260503T18Z_MSC_RDPS_WindDir_AGL-120m_RLatLon0.09_PT041H.grib2 2026-05-03 20:52 608K
20260503T18Z_MSC_RDPS_WindDir_AGL-40m_RLatLon0.09_PT041H.grib2 2026-05-03 20:52 642K
20260503T18Z_MSC_RDPS_WindDir_AGL-80m_RLatLon0.09_PT041H.grib2 2026-05-03 20:52 622K
20260503T18Z_MSC_RDPS_WindDir_IsbL-0001_RLatLon0.09_PT041H.grib2 2026-05-03 20:52 306K
20260503T18Z_MSC_RDPS_WindDir_IsbL-0005_RLatLon0.09_PT041H.grib2 2026-05-03 20:52 393K
20260503T18Z_MSC_RDPS_WindDir_IsbL-0010_RLatLon0.09_PT041H.grib2 2026-05-03 20:52 405K
20260503T18Z_MSC_RDPS_WindDir_IsbL-0020_RLatLon0.09_PT041H.grib2 2026-05-03 20:52 414K
20260503T18Z_MSC_RDPS_WindDir_IsbL-0030_RLatLon0.09_PT041H.grib2 2026-05-03 20:52 421K
20260503T18Z_MSC_RDPS_WindDir_IsbL-0050_RLatLon0.09_PT041H.grib2 2026-05-03 20:52 433K
20260503T18Z_MSC_RDPS_WindDir_IsbL-0100_RLatLon0.09_PT041H.grib2 2026-05-03 20:52 424K
20260503T18Z_MSC_RDPS_WindDir_IsbL-0150_RLatLon0.09_PT041H.grib2 2026-05-03 20:52 408K
20260503T18Z_MSC_RDPS_WindDir_IsbL-0175_RLatLon0.09_PT041H.grib2 2026-05-03 20:52 435K
20260503T18Z_MSC_RDPS_WindDir_IsbL-0200_RLatLon0.09_PT041H.grib2 2026-05-03 20:52 452K
20260503T18Z_MSC_RDPS_WindDir_IsbL-0225_RLatLon0.09_PT041H.grib2 2026-05-03 20:52 454K
20260503T18Z_MSC_RDPS_WindDir_IsbL-0250_RLatLon0.09_PT041H.grib2 2026-05-03 20:52 454K
20260503T18Z_MSC_RDPS_WindDir_IsbL-0275_RLatLon0.09_PT041H.grib2 2026-05-03 20:52 474K
20260503T18Z_MSC_RDPS_WindDir_IsbL-0300_RLatLon0.09_PT041H.grib2 2026-05-03 20:52 474K
20260503T18Z_MSC_RDPS_WindDir_IsbL-0350_RLatLon0.09_PT041H.grib2 2026-05-03 20:52 496K
20260503T18Z_MSC_RDPS_WindDir_IsbL-0400_RLatLon0.09_PT041H.grib2 2026-05-03 20:52 511K
20260503T18Z_MSC_RDPS_WindDir_IsbL-0450_RLatLon0.09_PT041H.grib2 2026-05-03 20:52 532K
20260503T18Z_MSC_RDPS_WindDir_IsbL-0500_RLatLon0.09_PT041H.grib2 2026-05-03 20:52 539K
20260503T18Z_MSC_RDPS_WindDir_IsbL-0550_RLatLon0.09_PT041H.grib2 2026-05-03 20:52 550K
20260503T18Z_MSC_RDPS_WindDir_IsbL-0600_RLatLon0.09_PT041H.grib2 2026-05-03 20:52 575K
20260503T18Z_MSC_RDPS_WindDir_IsbL-0650_RLatLon0.09_PT041H.grib2 2026-05-03 20:52 614K
20260503T18Z_MSC_RDPS_WindDir_IsbL-0700_RLatLon0.09_PT041H.grib2 2026-05-03 20:52 662K
20260503T18Z_MSC_RDPS_WindDir_IsbL-0750_RLatLon0.09_PT041H.grib2 2026-05-03 20:52 715K
20260503T18Z_MSC_RDPS_WindDir_IsbL-0800_RLatLon0.09_PT041H.grib2 2026-05-03 20:52 781K
20260503T18Z_MSC_RDPS_WindDir_IsbL-0850_RLatLon0.09_PT041H.grib2 2026-05-03 20:52 871K
20260503T18Z_MSC_RDPS_WindDir_IsbL-0875_RLatLon0.09_PT041H.grib2 2026-05-03 20:52 903K
20260503T18Z_MSC_RDPS_WindDir_IsbL-0900_RLatLon0.09_PT041H.grib2 2026-05-03 20:52 916K
20260503T18Z_MSC_RDPS_WindDir_IsbL-0925_RLatLon0.09_PT041H.grib2 2026-05-03 20:52 921K
20260503T18Z_MSC_RDPS_WindDir_IsbL-0950_RLatLon0.09_PT041H.grib2 2026-05-03 20:52 919K
20260503T18Z_MSC_RDPS_WindDir_IsbL-0970_RLatLon0.09_PT041H.grib2 2026-05-03 20:52 924K
20260503T18Z_MSC_RDPS_WindDir_IsbL-0985_RLatLon0.09_PT041H.grib2 2026-05-03 20:52 934K
20260503T18Z_MSC_RDPS_WindDir_IsbL-1000_RLatLon0.09_PT041H.grib2 2026-05-03 20:52 949K
20260503T18Z_MSC_RDPS_WindDir_IsbL-1015_RLatLon0.09_PT041H.grib2 2026-05-03 20:52 968K
20260503T18Z_MSC_RDPS_WindGust-Max_AGL-10m_RLatLon0.09_PT041H.grib2 2026-05-03 20:52 971K
20260503T18Z_MSC_RDPS_WindGust-Min_AGL-10m_RLatLon0.09_PT041H.grib2 2026-05-03 20:52 1.0M
20260503T18Z_MSC_RDPS_WindGust_AGL-10m_RLatLon0.09_PT041H.grib2 2026-05-03 20:52 1.0M
20260503T18Z_MSC_RDPS_WindSpeed_AGL-10m_RLatLon0.09_PT041H.grib2 2026-05-03 20:52 860K
20260503T18Z_MSC_RDPS_WindSpeed_AGL-120m_RLatLon0.09_PT041H.grib2 2026-05-03 20:52 554K
20260503T18Z_MSC_RDPS_WindSpeed_AGL-40m_RLatLon0.09_PT041H.grib2 2026-05-03 20:52 557K
20260503T18Z_MSC_RDPS_WindSpeed_AGL-80m_RLatLon0.09_PT041H.grib2 2026-05-03 20:52 556K
20260503T18Z_MSC_RDPS_WindSpeed_IsbL-0001_RLatLon0.09_PT041H.grib2 2026-05-03 20:52 334K
20260503T18Z_MSC_RDPS_WindSpeed_IsbL-0005_RLatLon0.09_PT041H.grib2 2026-05-03 20:52 391K
20260503T18Z_MSC_RDPS_WindSpeed_IsbL-0010_RLatLon0.09_PT041H.grib2 2026-05-03 20:52 370K
20260503T18Z_MSC_RDPS_WindSpeed_IsbL-0020_RLatLon0.09_PT041H.grib2 2026-05-03 20:52 425K
20260503T18Z_MSC_RDPS_WindSpeed_IsbL-0030_RLatLon0.09_PT041H.grib2 2026-05-03 20:52 325K
20260503T18Z_MSC_RDPS_WindSpeed_IsbL-0050_RLatLon0.09_PT041H.grib2 2026-05-03 20:52 356K
20260503T18Z_MSC_RDPS_WindSpeed_IsbL-0100_RLatLon0.09_PT041H.grib2 2026-05-03 20:52 481K
20260503T18Z_MSC_RDPS_WindSpeed_IsbL-0150_RLatLon0.09_PT041H.grib2 2026-05-03 20:52 380K
20260503T18Z_MSC_RDPS_WindSpeed_IsbL-0175_RLatLon0.09_PT041H.grib2 2026-05-03 20:52 426K
20260503T18Z_MSC_RDPS_WindSpeed_IsbL-0200_RLatLon0.09_PT041H.grib2 2026-05-03 20:52 439K
20260503T18Z_MSC_RDPS_WindSpeed_IsbL-0225_RLatLon0.09_PT041H.grib2 2026-05-03 20:52 444K
20260503T18Z_MSC_RDPS_WindSpeed_IsbL-0250_RLatLon0.09_PT041H.grib2 2026-05-03 20:52 446K
20260503T18Z_MSC_RDPS_WindSpeed_IsbL-0275_RLatLon0.09_PT041H.grib2 2026-05-03 20:52 462K
20260503T18Z_MSC_RDPS_WindSpeed_IsbL-0300_RLatLon0.09_PT041H.grib2 2026-05-03 20:52 461K
20260503T18Z_MSC_RDPS_WindSpeed_IsbL-0350_RLatLon0.09_PT041H.grib2 2026-05-03 20:52 473K
20260503T18Z_MSC_RDPS_WindSpeed_IsbL-0400_RLatLon0.09_PT041H.grib2 2026-05-03 20:52 477K
20260503T18Z_MSC_RDPS_WindSpeed_IsbL-0450_RLatLon0.09_PT041H.grib2 2026-05-03 20:52 464K
20260503T18Z_MSC_RDPS_WindSpeed_IsbL-0500_RLatLon0.09_PT041H.grib2 2026-05-03 20:52 465K
20260503T18Z_MSC_RDPS_WindSpeed_IsbL-0550_RLatLon0.09_PT041H.grib2 2026-05-03 20:52 463K
20260503T18Z_MSC_RDPS_WindSpeed_IsbL-0600_RLatLon0.09_PT041H.grib2 2026-05-03 20:52 589K
20260503T18Z_MSC_RDPS_WindSpeed_IsbL-0650_RLatLon0.09_PT041H.grib2 2026-05-03 20:52 609K
20260503T18Z_MSC_RDPS_WindSpeed_IsbL-0700_RLatLon0.09_PT041H.grib2 2026-05-03 20:52 633K
20260503T18Z_MSC_RDPS_WindSpeed_IsbL-0750_RLatLon0.09_PT041H.grib2 2026-05-03 20:52 664K
20260503T18Z_MSC_RDPS_WindSpeed_IsbL-0800_RLatLon0.09_PT041H.grib2 2026-05-03 20:52 762K
20260503T18Z_MSC_RDPS_WindSpeed_IsbL-0850_RLatLon0.09_PT041H.grib2 2026-05-03 20:52 835K
20260503T18Z_MSC_RDPS_WindSpeed_IsbL-0875_RLatLon0.09_PT041H.grib2 2026-05-03 20:52 860K
20260503T18Z_MSC_RDPS_WindSpeed_IsbL-0900_RLatLon0.09_PT041H.grib2 2026-05-03 20:52 874K
20260503T18Z_MSC_RDPS_WindSpeed_IsbL-0925_RLatLon0.09_PT041H.grib2 2026-05-03 20:52 885K
20260503T18Z_MSC_RDPS_WindSpeed_IsbL-0950_RLatLon0.09_PT041H.grib2 2026-05-03 20:52 885K
20260503T18Z_MSC_RDPS_WindSpeed_IsbL-0970_RLatLon0.09_PT041H.grib2 2026-05-03 20:52 882K
20260503T18Z_MSC_RDPS_WindSpeed_IsbL-0985_RLatLon0.09_PT041H.grib2 2026-05-03 20:52 873K
20260503T18Z_MSC_RDPS_WindSpeed_IsbL-1000_RLatLon0.09_PT041H.grib2 2026-05-03 20:52 867K
20260503T18Z_MSC_RDPS_WindSpeed_IsbL-1015_RLatLon0.09_PT041H.grib2 2026-05-03 20:52 860K
20260503T18Z_MSC_RDPS_WindU_AGL-10m_RLatLon0.09_PT041H.grib2 2026-05-03 20:52 440K
20260503T18Z_MSC_RDPS_WindU_AGL-120m_RLatLon0.09_PT041H.grib2 2026-05-03 20:52 428K
20260503T18Z_MSC_RDPS_WindU_AGL-40m_RLatLon0.09_PT041H.grib2 2026-05-03 20:52 550K
20260503T18Z_MSC_RDPS_WindU_AGL-80m_RLatLon0.09_PT041H.grib2 2026-05-03 20:52 430K
20260503T18Z_MSC_RDPS_WindU_IsbL-0001_RLatLon0.09_PT041H.grib2 2026-05-03 20:52 244K
20260503T18Z_MSC_RDPS_WindU_IsbL-0005_RLatLon0.09_PT041H.grib2 2026-05-03 20:52 287K
20260503T18Z_MSC_RDPS_WindU_IsbL-0010_RLatLon0.09_PT041H.grib2 2026-05-03 20:52 299K
20260503T18Z_MSC_RDPS_WindU_IsbL-0020_RLatLon0.09_PT041H.grib2 2026-05-03 20:52 318K
20260503T18Z_MSC_RDPS_WindU_IsbL-0030_RLatLon0.09_PT041H.grib2 2026-05-03 20:52 355K
20260503T18Z_MSC_RDPS_WindU_IsbL-0050_RLatLon0.09_PT041H.grib2 2026-05-03 20:52 385K
20260503T18Z_MSC_RDPS_WindU_IsbL-0100_RLatLon0.09_PT041H.grib2 2026-05-03 20:52 338K
20260503T18Z_MSC_RDPS_WindU_IsbL-0150_RLatLon0.09_PT041H.grib2 2026-05-03 20:52 397K
20260503T18Z_MSC_RDPS_WindU_IsbL-0175_RLatLon0.09_PT041H.grib2 2026-05-03 20:52 420K
20260503T18Z_MSC_RDPS_WindU_IsbL-0200_RLatLon0.09_PT041H.grib2 2026-05-03 20:52 336K
20260503T18Z_MSC_RDPS_WindU_IsbL-0225_RLatLon0.09_PT041H.grib2 2026-05-03 20:52 339K
20260503T18Z_MSC_RDPS_WindU_IsbL-0250_RLatLon0.09_PT041H.grib2 2026-05-03 20:52 339K
20260503T18Z_MSC_RDPS_WindU_IsbL-0275_RLatLon0.09_PT041H.grib2 2026-05-03 20:52 353K
20260503T18Z_MSC_RDPS_WindU_IsbL-0300_RLatLon0.09_PT041H.grib2 2026-05-03 20:52 350K
20260503T18Z_MSC_RDPS_WindU_IsbL-0350_RLatLon0.09_PT041H.grib2 2026-05-03 20:52 358K
20260503T18Z_MSC_RDPS_WindU_IsbL-0400_RLatLon0.09_PT041H.grib2 2026-05-03 20:52 362K
20260503T18Z_MSC_RDPS_WindU_IsbL-0450_RLatLon0.09_PT041H.grib2 2026-05-03 20:52 468K
20260503T18Z_MSC_RDPS_WindU_IsbL-0500_RLatLon0.09_PT041H.grib2 2026-05-03 20:52 470K
20260503T18Z_MSC_RDPS_WindU_IsbL-0550_RLatLon0.09_PT041H.grib2 2026-05-03 20:52 469K
20260503T18Z_MSC_RDPS_WindU_IsbL-0600_RLatLon0.09_PT041H.grib2 2026-05-03 20:52 478K
20260503T18Z_MSC_RDPS_WindU_IsbL-0650_RLatLon0.09_PT041H.grib2 2026-05-03 20:52 496K
20260503T18Z_MSC_RDPS_WindU_IsbL-0700_RLatLon0.09_PT041H.grib2 2026-05-03 20:52 502K
20260503T18Z_MSC_RDPS_WindU_IsbL-0750_RLatLon0.09_PT041H.grib2 2026-05-03 20:52 530K
20260503T18Z_MSC_RDPS_WindU_IsbL-0800_RLatLon0.09_PT041H.grib2 2026-05-03 20:52 577K
20260503T18Z_MSC_RDPS_WindU_IsbL-0850_RLatLon0.09_PT041H.grib2 2026-05-03 20:52 649K
20260503T18Z_MSC_RDPS_WindU_IsbL-0875_RLatLon0.09_PT041H.grib2 2026-05-03 20:52 662K
20260503T18Z_MSC_RDPS_WindU_IsbL-0900_RLatLon0.09_PT041H.grib2 2026-05-03 20:52 678K
20260503T18Z_MSC_RDPS_WindU_IsbL-0925_RLatLon0.09_PT041H.grib2 2026-05-03 20:52 683K
20260503T18Z_MSC_RDPS_WindU_IsbL-0950_RLatLon0.09_PT041H.grib2 2026-05-03 20:52 674K
20260503T18Z_MSC_RDPS_WindU_IsbL-0970_RLatLon0.09_PT041H.grib2 2026-05-03 20:52 668K
20260503T18Z_MSC_RDPS_WindU_IsbL-0985_RLatLon0.09_PT041H.grib2 2026-05-03 20:52 804K
20260503T18Z_MSC_RDPS_WindU_IsbL-1000_RLatLon0.09_PT041H.grib2 2026-05-03 20:52 800K
20260503T18Z_MSC_RDPS_WindU_IsbL-1015_RLatLon0.09_PT041H.grib2 2026-05-03 20:52 794K
20260503T18Z_MSC_RDPS_WindV_AGL-10m_RLatLon0.09_PT041H.grib2 2026-05-03 20:52 442K
20260503T18Z_MSC_RDPS_WindV_AGL-120m_RLatLon0.09_PT041H.grib2 2026-05-03 20:52 429K
20260503T18Z_MSC_RDPS_WindV_AGL-40m_RLatLon0.09_PT041H.grib2 2026-05-03 20:52 551K
20260503T18Z_MSC_RDPS_WindV_AGL-80m_RLatLon0.09_PT041H.grib2 2026-05-03 20:52 549K
20260503T18Z_MSC_RDPS_WindV_IsbL-0001_RLatLon0.09_PT041H.grib2 2026-05-03 20:52 247K
20260503T18Z_MSC_RDPS_WindV_IsbL-0005_RLatLon0.09_PT041H.grib2 2026-05-03 20:52 291K
20260503T18Z_MSC_RDPS_WindV_IsbL-0010_RLatLon0.09_PT041H.grib2 2026-05-03 20:52 302K
20260503T18Z_MSC_RDPS_WindV_IsbL-0020_RLatLon0.09_PT041H.grib2 2026-05-03 20:52 320K
20260503T18Z_MSC_RDPS_WindV_IsbL-0030_RLatLon0.09_PT041H.grib2 2026-05-03 20:52 357K
20260503T18Z_MSC_RDPS_WindV_IsbL-0050_RLatLon0.09_PT041H.grib2 2026-05-03 20:52 350K
20260503T18Z_MSC_RDPS_WindV_IsbL-0100_RLatLon0.09_PT041H.grib2 2026-05-03 20:52 337K
20260503T18Z_MSC_RDPS_WindV_IsbL-0150_RLatLon0.09_PT041H.grib2 2026-05-03 20:52 394K
20260503T18Z_MSC_RDPS_WindV_IsbL-0175_RLatLon0.09_PT041H.grib2 2026-05-03 20:52 323K
20260503T18Z_MSC_RDPS_WindV_IsbL-0200_RLatLon0.09_PT041H.grib2 2026-05-03 20:52 334K
20260503T18Z_MSC_RDPS_WindV_IsbL-0225_RLatLon0.09_PT041H.grib2 2026-05-03 20:52 363K
20260503T18Z_MSC_RDPS_WindV_IsbL-0250_RLatLon0.09_PT041H.grib2 2026-05-03 20:52 365K
20260503T18Z_MSC_RDPS_WindV_IsbL-0275_RLatLon0.09_PT041H.grib2 2026-05-03 20:52 376K
20260503T18Z_MSC_RDPS_WindV_IsbL-0300_RLatLon0.09_PT041H.grib2 2026-05-03 20:52 373K
20260503T18Z_MSC_RDPS_WindV_IsbL-0350_RLatLon0.09_PT041H.grib2 2026-05-03 20:52 357K
20260503T18Z_MSC_RDPS_WindV_IsbL-0400_RLatLon0.09_PT041H.grib2 2026-05-03 20:52 361K
20260503T18Z_MSC_RDPS_WindV_IsbL-0450_RLatLon0.09_PT041H.grib2 2026-05-03 20:52 364K
20260503T18Z_MSC_RDPS_WindV_IsbL-0500_RLatLon0.09_PT041H.grib2 2026-05-03 20:52 468K
20260503T18Z_MSC_RDPS_WindV_IsbL-0550_RLatLon0.09_PT041H.grib2 2026-05-03 20:52 468K
20260503T18Z_MSC_RDPS_WindV_IsbL-0600_RLatLon0.09_PT041H.grib2 2026-05-03 20:52 476K
20260503T18Z_MSC_RDPS_WindV_IsbL-0650_RLatLon0.09_PT041H.grib2 2026-05-03 20:52 477K
20260503T18Z_MSC_RDPS_WindV_IsbL-0700_RLatLon0.09_PT041H.grib2 2026-05-03 20:52 498K
20260503T18Z_MSC_RDPS_WindV_IsbL-0750_RLatLon0.09_PT041H.grib2 2026-05-03 20:52 526K
20260503T18Z_MSC_RDPS_WindV_IsbL-0800_RLatLon0.09_PT041H.grib2 2026-05-03 20:52 573K
20260503T18Z_MSC_RDPS_WindV_IsbL-0850_RLatLon0.09_PT041H.grib2 2026-05-03 20:52 637K
20260503T18Z_MSC_RDPS_WindV_IsbL-0875_RLatLon0.09_PT041H.grib2 2026-05-03 20:52 659K
20260503T18Z_MSC_RDPS_WindV_IsbL-0900_RLatLon0.09_PT041H.grib2 2026-05-03 20:52 670K
20260503T18Z_MSC_RDPS_WindV_IsbL-0925_RLatLon0.09_PT041H.grib2 2026-05-03 20:52 677K
20260503T18Z_MSC_RDPS_WindV_IsbL-0950_RLatLon0.09_PT041H.grib2 2026-05-03 20:52 673K
20260503T18Z_MSC_RDPS_WindV_IsbL-0970_RLatLon0.09_PT041H.grib2 2026-05-03 20:52 670K
20260503T18Z_MSC_RDPS_WindV_IsbL-0985_RLatLon0.09_PT041H.grib2 2026-05-03 20:52 666K
20260503T18Z_MSC_RDPS_WindV_IsbL-1000_RLatLon0.09_PT041H.grib2 2026-05-03 20:52 802K
20260503T18Z_MSC_RDPS_WindV_IsbL-1015_RLatLon0.09_PT041H.grib2 2026-05-03 20:52 796K